User: anonymous   Login
Location: Decatur(IL)
(39.8400°N, 88.9550°W)
Time: 15:20:12
(UTC-05:00)
Language:

Cosmos 2242 Rocket - Orbit

View from above orbital plane
View from above orbital plane
View from above satellite
View from above satellite

Ground track
Ground track

The orbit data is extracted from the following two-line orbital elements,

1 22627U 93024B   16175.82015230  .00000079  00000-0  76472-5 0  9995
2 22627  82.5232  72.9100 0024977  64.1075   2.0494 14.78030117249213
Epoch (UTC): 23 June 2016 19:41:01
Eccentricity: 0.0024977
inclination: 82.5232°
perigee height: 618 km
apogee height: 653 km
right ascension of ascending node: 72.9100°
argument of perigee: 64.1075°
revolutions per day: 14.78030117
mean anomaly at epoch: 2.0494°
orbit number at epoch: 24921

The dashed part of the orbit path shows where the satellite is in the earth's shadow,  

DLR